Weather in Fadeyevka

Russia / Primorsky Krai     44°04′26″N   131°24′03″E
temp.,
°C
wind,
m/s
gust,
m/s
humid.,
%
clouds,
%
prec.,
mm/h
press.,
hPa
HPBL,
m
28 january, thu
thu2801:00−17wnw12820 0.0 102320
04:00−18wsw018415 0.0 102220
07:00−18nne1187100 0.0 101920
10:00−16ne2488100 0.1 1016227
13:00−14nne4894100 1.1 1012444
16:00−13n61293100 3.4 1007676
19:00−14n71493100 3.2 1007668
22:00−14nnw61493100 5.4 1006873
29 january, fri
fri2901:00−14nnw81590100 1.6 10081024
04:00−16nw71584100 1.8 10091064
07:00−19wnw71576100 0.0 1013947
10:00−20wnw71275100 0.0 1016883
13:00−19wnw71172100 0.0 1017935
16:00−18nw71271100 0.0 10181004
19:00−23wnw48750 0.0 1021146
22:00−27wnw33790 0.0 102235
30 january, sat
sat3001:00−29wnw22790 0.0 102421
04:00−30wnw22790 0.0 102519
07:00−31w11790 0.0 102519
10:00−27wnw008325 0.0 102626
13:00−22ese007320 0.0 1025255
16:00−19e117260 0.0 1024269
19:00−25e118735 0.0 102720
22:00−27wsw019018 0.0 102920
31 january, sun
sun3101:00−28w11890 0.0 103019
04:00−28wnw11890 0.0 103219
07:00−29w11860 0.0 103119
10:00−25w01860 0.0 103222
13:00−19e117922 0.0 1030231
16:00−17e227938 0.0 1028253
19:00−22e019068 0.0 102820
22:00−24nnw118868 0.0 102820
1 february, mon
mon101:00−24nnw018832 0.0 102620
04:00−21ene019966 0.4 102275
07:00−20wnw0099100 1.0 101678
10:00−19n1194100 1.4 1014163
13:00−15ne0189100 0.1 1011227
16:00−12ne4693100 0.3 1011356
19:00−15nw3876100 0.4 1015275
22:00−21wnw487996 0.4 1017139